Morris, MN

5:48 PM CST on November 21, 2017 (GMT -0600)
Morris Municipal

Weather History for KMOX - September, 2013

Change the Weather History Date:

Tuesday, September 17, 2013

  Actual Average Record
Temperature  
Mean Temperature 56 °F -  
Max Temperature 64 °F 68 °F 86 °F (2007)
Min Temperature 48 °F 45 °F 33 °F (2012)
Degree Days  
Heating Degree Days 9    
Growing Degree Days 6 (Base 50)    
Moisture  
Dew Point 53 °F    
Average Humidity 89    
Maximum Humidity 100    
Minimum Humidity 73    
Precipitation  
Precipitation 0.00 in - - ()
Sea Level Pressure  
Sea Level Pressure 30.00 in    
Wind  
Wind Speed 13 mph (SSE)    
Max Wind Speed 20 mph    
Max Gust Speed 26 mph    
Visibility 9 miles    
Events      
Averages and records for this station are not official NWS values.
T = Trace of Precipitation, MM = Missing Value Source: NWS Daily Summary

Daily Weather History Graph

Daily Weather History Graph

Search for Another Location

Airport or City:

Trip Planner

Search our weather history database for the weather conditions in past years. The results will help you decide how hot, cold, wet, or windy it might be!

Date:

Astronomy

Sep. 17, 2013 Rise Set
Actual Time 7:05 AM CDT 7:30 PM CDT
Civil Twilight 6:35 AM CDT 8:00 PM CDT
Nautical Twilight 6:00 AM CDT 8:35 PM CDT
Astronomical Twilight 5:23 AM CDT 9:11 PM CDT
Moon 6:20 PM CDT (9/17) 4:56 AM CDT (9/17)
Length of Visible Light 13h 24m
Length of Day
12h 25m
Waxing Gibbous, 96% of the Moon is Illuminated
Sep 17
Waxing Gibbous
Sep 19
Full
Sep 26
Last Quarter
Oct 4
New
Oct 11
First Quarter

Hourly Weather History & Observations

Time (CDT) Temp. Dew Point Humidity Pressure Visibility Wind Dir Wind Speed Gust Speed Precip Events Conditions
12:07 AM 51.8 °F 48.2 °F 88% 30.16 in 10.0 mi SE 10.4 mph - N/A   Clear
12:27 AM 53.6 °F 50.0 °F 88% 30.17 in 10.0 mi SSE 12.7 mph - N/A   Clear
12:47 AM 53.6 °F 50.0 °F 88% 30.16 in 10.0 mi SSE 11.5 mph - N/A   Clear
1:07 AM 53.6 °F 50.0 °F 88% 30.16 in 10.0 mi SSE 12.7 mph - N/A   Clear
1:27 AM 53.6 °F 50.0 °F 88% 30.15 in 10.0 mi SSE 10.4 mph - N/A   Clear
1:47 AM 51.8 °F 50.0 °F 94% 30.15 in 10.0 mi SSE 11.5 mph - N/A   Clear
2:07 AM 51.8 °F 48.2 °F 88% 30.15 in 10.0 mi SSE 9.2 mph - N/A   Clear
2:27 AM 51.8 °F 48.2 °F 88% 30.15 in 10.0 mi SSE 9.2 mph - N/A   Clear
2:47 AM 51.8 °F 48.2 °F 88% 30.14 in 10.0 mi SSE 9.2 mph - N/A   Clear
3:07 AM 50.0 °F 48.2 °F 94% 30.14 in 10.0 mi SSE 8.1 mph - N/A   Clear
3:27 AM 50.0 °F 48.2 °F 94% 30.14 in 10.0 mi SSE 8.1 mph - N/A   Clear
3:47 AM 48.2 °F 48.2 °F 100% 30.13 in 10.0 mi SE 8.1 mph - N/A   Clear
4:07 AM 48.2 °F 46.4 °F 93% 30.12 in 10.0 mi SE 8.1 mph - N/A   Clear
4:27 AM 48.2 °F 46.4 °F 93% 30.11 in 10.0 mi SE 9.2 mph - N/A   Clear
4:47 AM 48.2 °F 46.4 °F 93% 30.10 in 10.0 mi SE 9.2 mph - N/A   Clear
5:07 AM 48.2 °F 48.2 °F 100% 30.10 in 10.0 mi SE 10.4 mph - N/A   Clear
5:27 AM 48.2 °F 48.2 °F 100% 30.09 in 10.0 mi SE 10.4 mph - N/A   Clear
5:47 AM 48.2 °F 48.2 °F 100% 30.08 in 10.0 mi SE 12.7 mph - N/A   Clear
6:07 AM 48.2 °F 48.2 °F 100% 30.08 in 10.0 mi SE 10.4 mph - N/A   Clear
6:27 AM 50.0 °F 48.2 °F 94% 30.08 in 10.0 mi SE 10.4 mph - N/A   Mostly Cloudy
6:47 AM 51.8 °F 48.2 °F 88% 30.07 in 10.0 mi SE 11.5 mph 18.4 mph N/A   Overcast
7:07 AM 51.8 °F 48.2 °F 88% 30.08 in 10.0 mi SE 11.5 mph - N/A   Overcast
7:27 AM 51.8 °F 50.0 °F 94% 30.07 in 10.0 mi SE 11.5 mph 16.1 mph N/A   Overcast
7:47 AM 51.8 °F 50.0 °F 94% 30.07 in 10.0 mi SSE 13.8 mph - N/A   Overcast
8:07 AM 53.6 °F 50.0 °F 88% 30.06 in 10.0 mi SSE 15.0 mph 18.4 mph N/A   Overcast
8:27 AM 53.6 °F 51.8 °F 94% 30.06 in 10.0 mi SE 11.5 mph 19.6 mph N/A   Overcast
8:47 AM 53.6 °F 51.8 °F 94% 30.05 in 10.0 mi SSE 15.0 mph 18.4 mph N/A   Overcast
9:07 AM 53.6 °F 51.8 °F 94% 30.04 in 10.0 mi SE 16.1 mph - N/A   Overcast
9:27 AM 53.6 °F 51.8 °F 94% 30.04 in 10.0 mi SE 12.7 mph 20.7 mph N/A   Overcast
9:47 AM 55.4 °F 51.8 °F 88% 30.03 in 10.0 mi SSE 16.1 mph 20.7 mph N/A   Overcast
10:07 AM 55.4 °F 53.6 °F 94% 30.03 in 10.0 mi SSE 17.3 mph 21.9 mph N/A   Overcast
10:27 AM 57.2 °F 53.6 °F 88% 30.03 in 10.0 mi SSE 15.0 mph 21.9 mph N/A   Overcast
10:47 AM 57.2 °F 53.6 °F 88% 30.02 in 10.0 mi SSE 16.1 mph 19.6 mph N/A   Overcast
11:07 AM 57.2 °F 53.6 °F 88% 30.02 in 10.0 mi SSE 17.3 mph 20.7 mph N/A   Overcast
11:27 AM 59.0 °F 53.6 °F 82% 30.02 in 10.0 mi SSE 15.0 mph - N/A   Overcast
11:47 AM 59.0 °F 55.4 °F 88% 30.01 in 10.0 mi SSE 16.1 mph 21.9 mph N/A   Overcast
12:07 PM 60.8 °F 55.4 °F 82% 30.00 in 10.0 mi SSE 15.0 mph 21.9 mph N/A   Overcast
12:27 PM 60.8 °F 55.4 °F 82% 30.00 in 10.0 mi SSE 16.1 mph 23.0 mph N/A   Overcast
12:47 PM 60.8 °F 55.4 °F 82% 29.99 in 10.0 mi SSE 16.1 mph 21.9 mph N/A   Overcast
1:07 PM 62.6 °F 55.4 °F 77% 29.97 in 10.0 mi SSE 12.7 mph 20.7 mph N/A   Overcast
1:27 PM 62.6 °F 55.4 °F 77% 29.97 in 10.0 mi SSE 19.6 mph 24.2 mph N/A   Overcast
1:47 PM 64.4 °F 55.4 °F 73% 29.95 in 10.0 mi SSE 19.6 mph 25.3 mph N/A   Overcast
2:07 PM 64.4 °F 55.4 °F 73% 29.95 in 10.0 mi SSE 17.3 mph 24.2 mph N/A   Overcast
2:27 PM 64.4 °F 55.4 °F 73% 29.94 in 10.0 mi SSE 19.6 mph 26.5 mph N/A   Overcast
2:47 PM 64.4 °F 57.2 °F 77% 29.94 in 10.0 mi SSE 18.4 mph 23.0 mph N/A   Overcast
3:07 PM 64.4 °F 57.2 °F 77% 29.93 in 10.0 mi SSE 13.8 mph - N/A   Overcast
3:27 PM 64.4 °F 57.2 °F 77% 29.92 in 10.0 mi SSE 16.1 mph 21.9 mph N/A   Overcast
3:47 PM 64.4 °F 57.2 °F 77% 29.92 in 10.0 mi SSE 16.1 mph 21.9 mph N/A   Overcast
4:07 PM 62.6 °F 57.2 °F 82% 29.91 in 10.0 mi SSE 16.1 mph - N/A   Overcast
4:27 PM 62.6 °F 57.2 °F 82% 29.91 in 10.0 mi SSE 17.3 mph 21.9 mph N/A   Overcast
4:47 PM 62.6 °F 57.2 °F 82% 29.91 in 10.0 mi SSE 17.3 mph 25.3 mph N/A   Overcast
5:07 PM 62.6 °F 55.4 °F 77% 29.90 in 10.0 mi SSE 18.4 mph 23.0 mph N/A   Overcast
5:27 PM 62.6 °F 55.4 °F 77% 29.90 in 10.0 mi SSE 13.8 mph 23.0 mph N/A   Overcast
5:47 PM 62.6 °F 55.4 °F 77% 29.89 in 10.0 mi SSE 16.1 mph 20.7 mph N/A   Overcast
6:07 PM 62.6 °F 55.4 °F 77% 29.89 in 10.0 mi SSE 16.1 mph 21.9 mph N/A   Overcast
6:27 PM 62.6 °F 55.4 °F 77% 29.89 in 10.0 mi SE 13.8 mph 19.6 mph N/A   Overcast
6:47 PM 60.8 °F 55.4 °F 82% 29.88 in 10.0 mi SE 15.0 mph - N/A   Overcast
7:07 PM 60.8 °F 55.4 °F 82% 29.88 in 10.0 mi SE 16.1 mph 20.7 mph N/A   Overcast
7:27 PM 60.8 °F 55.4 °F 82% 29.88 in 10.0 mi SE 15.0 mph 20.7 mph N/A   Overcast
7:47 PM 59.0 °F 57.2 °F 94% 29.88 in 2.5 mi SSE 15.0 mph - N/A   Overcast
8:07 PM 57.2 °F 57.2 °F 100% 29.88 in 4.0 mi SE 13.8 mph 20.7 mph N/A   Overcast
8:27 PM 57.2 °F 57.2 °F 100% 29.88 in 5.0 mi SE 15.0 mph 20.7 mph N/A   Overcast
8:47 PM 57.2 °F 57.2 °F 100% 29.88 in 5.0 mi SE 12.7 mph - N/A   Overcast
9:07 PM 57.2 °F 57.2 °F 100% 29.88 in 7.0 mi SSE 16.1 mph 23.0 mph N/A   Overcast
9:27 PM 57.2 °F 57.2 °F 100% 29.88 in 5.0 mi SE 11.5 mph 18.4 mph N/A   Overcast
9:47 PM 57.2 °F 57.2 °F 100% 29.88 in 4.0 mi SE 12.7 mph - N/A   Overcast
10:07 PM 57.2 °F 57.2 °F 100% 29.88 in 3.0 mi SE 12.7 mph - N/A   Overcast
10:27 PM 57.2 °F 57.2 °F 100% 29.88 in 3.0 mi SSE 11.5 mph 18.4 mph N/A   Overcast
10:47 PM 57.2 °F 57.2 °F 100% 29.87 in 3.0 mi SSE 12.7 mph - N/A   Overcast
11:07 PM 57.2 °F 57.2 °F 100% 29.87 in 3.0 mi SE 11.5 mph - N/A   Overcast
11:27 PM 57.2 °F 57.2 °F 100% 29.86 in 2.0 mi SE 10.4 mph - N/A   Overcast
11:47 PM 57.2 °F 57.2 °F 100% 29.86 in 1.8 mi SSE 11.5 mph - N/A   Overcast